Погода в Чистых Пруды

Россия / Калининградская область     54°27′22″N   22°25′36″E
темп.,
°C
ветер,
м/с
пор.,
м/с
влажн.,
%
обл.,
%
осадки,
мм/ч
давл.,
гПа
погр.,
м
12 апреля, пн
пн1223:00+12ююв71660100 0.0 1018687
02:00+11ююв61463100 0.0 1018539
05:00+10ююв61366100 0.0 1018407
08:00+10ююв51268100 0.0 1018503
11:00+13ююв51061100 0.0 1018876
14:00+11ю51069100 0.0 1018599
17:00+12ю487292 0.0 1017556
20:00+5зсз5894100 0.1 1019305
13 апреля, вт
вт1323:00+3сз51092100 0.1 1021502
02:00+3сз5995100 0.5 1022561
05:00+3зсз4991100 0.1 1023519
08:00+4сз4881100 0.1 1024541
11:00+7сз5654100 0.0 1025988
14:00+8сз5649100 0.0 10251263
17:00+7сз5649100 0.0 10241145
20:00+4сз3765100 0.0 1025375
14 апреля, ср
ср1423:00+3сз377793 0.0 1024374
02:00+3сз2684100 0.0 1023359
05:00+2сз369094 0.0 1023353
08:00+4ссз3578100 0.0 1022474
11:00+6с456199 0.0 1022948
14:00+8с4650100 0.0 10211640
17:00+8ссв4755100 0.0 10201542
20:00+6св2662100 0.0 1021222
15 апреля, чт
чт1523:00+5ссв4965100 0.0 1021754
02:00+3ссв51173100 0.0 1021732
05:00+2ссв61294100 0.4 1020728
08:00+3ссв51197100 1.2 1020645
11:00+4св61295100 1.3 1020588
14:00+6св71290100 1.3 1020606
17:00+6св61290100 0.1 1020597
20:00+6св6138598 0.3 1020580
16 апреля, пт
пт1623:00+6св51286100 0.1 1021539
02:00+5св51185100 0.1 1021444
05:00+4св51185100 0.1 1021477
08:00+3св51185100 0.4 1022513
11:00+4св51188100 0.5 1023517
14:00+5св31188100 1.1 1023601
17:00+8всв51183100 0.1 1023763
20:00+7всв51383100 0.1 1025808